Wind_Speed
48 52 47 52 63 54 53 45 46 44 44 44 45 43 32 35 39 34 33 36 31 29 32 36 32 29 28 27 25 26 25 27 27 26 29 29 29 30 28 28 24 22 22 23
59 58 49 53 50 53 55 55 52 48 44 46 46 46 39 37 37 32 32 33 34 31 34 36 32 32 30 30 30 28 28 28 27 27 29 28 29 26 24 23 21 22 25 25
58 52 50 43 47 44 37 54 55 51 46 48 49 51 41 40 38 34 31 32 32 31 33 34 33 34 34 32 31 32 33 31 29 29 29 27 26 25 24 24 26 25 24 23
78 75 62 53 59 47 39 40 50 51 49 51 53 59 50 46 40 37 29 28 28 30 32 35 35 34 33 32 34 33 33 32 30 29 29 27 26 25 25 26 26 25 25 24
70 76 63 76 64 56 47 39 43 48 49 52 57 61 53 47 43 34 28 25 29 32 37 36 35 33 34 37 37 37 35 33 31 31 31 30 27 27 28 26 26 26 26 25
71 74 73 60 70 57 54 53 46 52 53 57 54 58 64 47 43 36 33 28 29 32 34 35 35 36 33 35 38 40 39 37 37 38 34 29 28 29 30 28 28 30 32 31
68 72 77 74 69 64 59 53 52 52 57 57 53 58 66 48 44 37 35 34 31 30 31 32 32 33 32 32 35 38 40 39 40 42 37 33 32 32 31 33 35 36 29 29
63 69 74 76 75 67 59 59 66 63 59 53 61 58 66 57 46 36 37 35 35 27 26 24 25 26 26 27 30 34 36 41 42 44 38 35 33 34 37 37 32 29 30 34
60 60 59 55 57 62 61 59 58 68 67 61 63 55 62 61 52 43 35 30 33 29 27 25 25 26 28 29 29 30 30 33 36 39 37 34 35 32 31 29 23 25 27 31
53 55 56 62 59 59 58 57 50 58 62 62 58 57 62 59 56 45 42 38 33 29 32 31 30 30 29 28 30 29 25 24 26 31 35 32 28 25 23 23 25 28 32 34
52 54 56 67 71 60 59 61 58 53 52 50 49 56 51 54 55 45 43 40 38 38 35 36 38 36 33 32 31 30 28 25 25 27 29 29 29 28 27 26 29 33 35 37
50 50 57 59 60 64 61 53 57 62 58 52 53 56 48 49 53 45 40 44 42 40 39 38 38 37 36 33 32 32 32 30 29 30 32 33 34 34 32 32 35 38 41 43
54 53 53 57 51 60 67 59 59 58 55 55 53 52 43 43 46 47 38 41 44 45 42 38 37 37 36 35 35 36 36 35 35 37 38 39 40 39 37 39 42 43 45 46
55 58 60 55 54 53 51 57 54 63 67 57 60 49 44 43 43 45 41 41 44 42 43 40 39 39 37 33 37 40 40 40 42 44 43 43 42 42 43 45 46 48 49 50
40 48 60 57 54 52 48 40 51 59 63 68 48 53 45 45 43 39 41 42 45 46 45 45 43 44 46 42 41 43 43 45 47 48 46 46 47 47 48 50 51 52 51 52
55 48 49 61 63 65 61 58 56 58 57 60 54 52 42 43 49 46 39 40 47 51 50 46 45 47 45 47 45 45 45 45 45 46 48 50 49 50 51 53 54 55 53 53
49 55 51 57 56 61 72 57 52 54 57 56 60 49 37 50 48 49 49 47 48 51 56 54 49 47 53 51 51 52 50 50 50 51 50 50 52 54 55 56 55 54 53 52
52 54 56 54 57 66 52 52 52 58 57 61 61 53 52 54 56 59 54 54 50 53 60 58 54 49 45 50 51 53 54 54 55 53 52 53 55 56 56 55 55 55 54 53
51 52 53 54 59 60 59 48 52 58 61 57 64 57 56 61 68 68 59 54 52 52 56 62 58 56 57 57 56 56 57 60 60 56 55 57 56 56 55 54 54 54 54 51
61 60 61 58 58 60 50 49 56 57 69 58 58 53 54 57 63 69 56 50 51 46 49 55 57 58 55 59 62 61 63 65 62 57 56 57 57 56 54 55 56 55 54 52
55 61 65 62 61 60 42 48 55 64 54 48 53 49 47 56 53 54 47 46 46 51 52 53 55 62 62 62 62 66 67 69 64 62 59 59 58 58 58 57 58 58 54 51
48 51 54 64 67 57 45 57 62 56 52 50 53 44 48 47 46 47 45 45 45 47 50 55 59 63 65 62 66 68 68 64 62 59 61 61 61 59 58 59 58 56 53 53
53 53 53 56 62 56 57 54 51 58 59 53 47 49 52 53 51 49 48 46 39 43 44 49 54 54 59 63 62 63 68 66 64 64 64 65 63 60 60 58 55 55 55 54
40 43 53 57 59 57 58 56 52 52 49 48 49 55 54 51 43 43 44 45 46 45 40 44 46 47 49 55 57 59 59 62 64 64 66 66 62 59 58 57 56 56 55 54
30 32 42 58 66 63 59 56 47 48 48 50 53 48 45 49 45 42 39 40 44 44 41 39 45 52 54 58 57 57 60 60 60 62 62 60 59 60 60 59 56 54 55 55
33 31 39 52 66 66 60 61 48 48 50 50 51 51 42 45 50 48 41 47 48 51 44 42 43 46 48 53 59 61 62 65 66 66 64 61 64 65 62 57 53 55 57 58
Wind_Direction
218 231 227 238 250 256 244 235 239 235 234 238 244 244 235 236 237 234 233 233 234 229 224 233 233 234 236 238 235 236 233 237 238 237 238 239 240 244 244 246 251 254 257 260
218 211 237 235 244 242 244 236 239 237 235 239 242 247 234 238 239 241 237 241 234 230 227 234 235 237 235 238 238 241 241 240 240 240 242 243 245 249 253 258 254 250 250 258
208 204 213 214 222 221 221 232 232 234 233 237 242 244 240 237 238 237 239 242 230 226 228 237 238 238 236 237 239 241 241 242 240 243 247 249 251 251 250 247 246 251 262 270
222 223 224 228 228 235 224 228 234 237 233 234 241 244 237 233 239 238 238 241 235 236 228 236 236 236 239 240 241 241 247 249 248 250 252 252 252 252 254 255 257 260 263 269
224 227 228 225 227 240 239 249 249 243 242 235 236 246 231 234 233 242 239 233 233 237 235 238 239 238 236 237 240 241 243 250 256 256 255 253 253 254 257 259 264 267 271 276
221 223 221 222 222 233 249 256 245 243 238 238 237 245 238 232 234 237 239 233 234 239 237 236 234 238 241 247 247 250 249 247 251 254 257 257 255 257 259 264 265 270 269 271
225 224 222 225 228 243 244 241 238 239 238 239 237 239 237 233 231 236 241 237 236 241 242 244 241 241 249 247 245 248 248 249 251 248 249 251 249 251 258 260 260 265 271 276
227 225 225 228 237 242 245 245 238 241 243 244 242 240 240 237 233 233 241 242 241 246 244 241 240 231 233 241 248 254 254 250 247 243 247 250 254 258 255 263 267 265 264 264
226 228 230 228 230 229 229 237 240 242 245 243 241 242 244 243 240 236 240 243 243 241 241 237 234 239 243 245 249 253 256 255 253 240 239 249 254 258 258 257 259 258 261 263
225 225 222 215 219 222 226 231 230 236 237 242 242 241 243 243 245 240 240 244 245 241 237 236 237 239 238 242 244 251 253 252 243 229 237 243 242 242 243 253 259 264 266 269
220 223 221 221 226 229 226 230 227 229 234 236 241 241 244 247 248 240 235 239 240 241 237 236 237 239 242 242 241 245 245 249 245 240 238 237 233 234 244 256 265 266 268 270
220 224 222 225 222 224 225 224 230 230 232 236 239 242 242 247 251 246 231 236 241 243 244 241 243 242 241 241 242 244 245 245 245 243 243 241 238 241 253 260 265 268 271 272
222 215 227 223 222 223 227 235 234 231 235 237 240 242 237 238 242 246 231 232 235 241 242 243 240 238 238 240 243 243 244 243 241 241 242 244 246 250 255 261 265 268 272 274
226 222 220 223 224 229 235 236 240 234 235 238 242 243 234 237 242 242 239 229 231 232 236 237 236 233 233 244 238 239 239 241 243 242 246 248 249 251 256 262 268 270 273 276
214 233 227 220 224 220 217 229 235 237 239 242 237 242 233 242 240 243 244 232 226 231 236 237 234 237 239 242 236 237 241 246 246 243 246 248 249 254 258 263 267 272 275 277
213 214 229 223 225 225 230 235 241 242 240 240 240 241 236 239 238 241 244 237 229 228 229 232 235 235 233 235 236 238 245 245 245 244 246 248 251 255 260 263 266 270 275 279
216 218 228 223 228 233 237 231 242 248 249 251 249 247 233 248 241 239 245 247 242 235 231 233 236 242 243 242 241 242 248 249 244 244 246 251 257 260 262 264 269 275 279 282
220 223 232 229 234 235 237 235 242 248 250 251 252 248 243 244 245 245 248 247 244 243 237 233 238 239 245 242 240 239 241 240 240 243 251 256 258 260 264 269 272 276 279 279
230 224 233 234 237 242 236 239 252 255 253 253 253 242 238 240 246 247 247 246 244 249 241 239 239 239 239 236 236 239 243 243 242 248 256 260 262 264 267 270 272 274 273 270
239 239 243 239 242 243 243 247 250 250 256 244 251 245 239 239 250 242 245 245 250 251 243 236 240 240 243 242 244 241 240 241 245 256 259 261 262 263 264 266 268 268 266 266
244 245 248 238 242 245 247 246 244 248 253 250 252 246 249 257 248 241 243 250 247 245 244 240 239 243 246 247 247 243 245 244 251 255 258 257 257 259 262 263 263 264 265 263
249 243 241 243 248 242 246 242 246 258 260 260 250 246 265 259 253 242 244 248 249 250 247 246 246 246 249 247 246 245 248 252 252 255 256 254 255 257 259 260 261 262 260 262
248 247 242 245 243 238 248 250 252 251 258 254 250 249 260 256 255 248 252 241 256 251 245 249 250 248 249 251 249 249 248 254 257 256 255 257 258 258 257 256 256 257 260 262
254 246 246 241 234 238 245 249 254 251 261 248 249 256 260 249 248 254 248 250 255 241 245 244 250 253 252 248 248 249 249 251 251 251 253 256 256 255 254 256 258 261 264 264
238 234 246 243 239 237 243 252 257 261 259 254 250 248 257 251 252 246 254 260 246 243 250 253 248 246 247 247 248 248 245 245 249 252 252 251 252 255 257 258 261 263 263 265
234 235 234 241 241 241 246 252 255 253 252 247 247 250 260 261 257 256 261 249 242 239 249 254 255 246 249 250 250 248 246 244 244 246 248 252 252 254 258 259 260 261 262 262
Height
5723 5727 5733 5741 5747 5755 5760 5763 5770 5779 5783 5786 5791 5797 5807 5808 5809 5814 5817 5823 5829 5834 5836 5836 5841 5844 5848 5851 5852 5853 5853 5854 5856 5857 5860 5861 5862 5862 5864 5864 5866 5868 5868 5867
5713 5717 5731 5734 5739 5745 5750 5754 5762 5768 5774 5778 5782 5788 5799 5802 5804 5809 5813 5817 5822 5828 5828 5831 5836 5839 5842 5845 5846 5848 5849 5849 5851 5852 5853 5856 5856 5858 5859 5861 5862 5862 5862 5863
5701 5716 5717 5722 5730 5734 5737 5744 5752 5759 5766 5769 5772 5776 5790 5796 5796 5802 5807 5812 5815 5820 5823 5826 5830 5833 5835 5838 5841 5841 5841 5844 5846 5847 5849 5851 5852 5854 5855 5854 5855 5856 5857 5859
5690 5700 5705 5711 5720 5728 5733 5739 5744 5750 5755 5760 5762 5762 5779 5787 5790 5796 5803 5806 5812 5813 5816 5818 5821 5826 5830 5834 5833 5833 5836 5839 5842 5844 5845 5847 5848 5849 5849 5849 5850 5852 5852 5853
5687 5690 5697 5702 5719 5720 5726 5732 5736 5741 5744 5750 5751 5751 5772 5779 5784 5793 5799 5801 5803 5804 5807 5809 5814 5818 5823 5824 5827 5827 5828 5833 5836 5839 5840 5840 5842 5843 5843 5845 5845 5846 5846 5847
5666 5674 5684 5701 5704 5710 5718 5723 5728 5729 5735 5730 5748 5748 5754 5774 5781 5787 5791 5795 5797 5798 5800 5802 5805 5810 5816 5819 5822 5822 5823 5825 5827 5831 5834 5835 5836 5837 5837 5838 5839 5839 5839 5840
5664 5667 5679 5688 5692 5699 5705 5715 5719 5718 5719 5727 5737 5735 5746 5766 5774 5782 5784 5787 5789 5791 5795 5798 5800 5804 5808 5810 5813 5815 5815 5816 5818 5822 5825 5827 5827 5828 5830 5830 5831 5832 5832 5832
5645 5654 5665 5679 5687 5694 5702 5706 5708 5705 5711 5729 5719 5728 5739 5754 5767 5775 5778 5780 5782 5786 5789 5791 5794 5796 5799 5803 5806 5807 5807 5807 5808 5811 5816 5818 5818 5820 5822 5821 5821 5823 5824 5824
5641 5648 5662 5672 5679 5682 5688 5685 5705 5698 5702 5709 5707 5729 5732 5741 5756 5767 5771 5772 5775 5778 5781 5783 5786 5790 5794 5796 5798 5799 5798 5799 5799 5802 5806 5809 5811 5812 5813 5814 5815 5816 5817 5817
5633 5640 5650 5661 5661 5667 5673 5686 5685 5684 5689 5695 5705 5713 5721 5734 5744 5756 5763 5767 5769 5769 5772 5775 5778 5782 5785 5788 5789 5791 5791 5792 5793 5795 5798 5801 5804 5806 5806 5808 5809 5809 5809 5809
5623 5629 5640 5642 5642 5660 5667 5668 5673 5680 5683 5688 5697 5699 5720 5724 5731 5745 5752 5755 5757 5759 5761 5766 5768 5771 5775 5778 5782 5784 5786 5786 5788 5790 5792 5794 5796 5797 5800 5801 5802 5802 5801 5801
5617 5620 5623 5630 5645 5648 5652 5657 5661 5663 5674 5680 5684 5691 5708 5716 5722 5734 5739 5743 5748 5750 5753 5757 5760 5763 5767 5770 5774 5776 5778 5779 5781 5782 5784 5786 5787 5790 5791 5792 5792 5792 5792 5791
5602 5606 5612 5619 5628 5631 5636 5647 5655 5661 5664 5667 5674 5682 5699 5705 5710 5716 5728 5731 5736 5739 5742 5746 5750 5754 5758 5761 5764 5767 5768 5770 5772 5773 5774 5776 5779 5781 5781 5782 5782 5782 5782 5781
5593 5597 5600 5609 5621 5626 5632 5639 5644 5648 5648 5663 5659 5679 5690 5695 5700 5704 5712 5720 5724 5728 5731 5735 5739 5744 5746 5750 5752 5755 5757 5759 5760 5762 5765 5767 5768 5769 5770 5771 5771 5770 5770 5769
5582 5588 5594 5605 5609 5613 5616 5624 5629 5630 5640 5641 5661 5664 5678 5684 5687 5692 5696 5706 5711 5717 5721 5725 5727 5730 5734 5738 5740 5743 5745 5748 5749 5752 5754 5756 5757 5758 5758 5758 5758 5759 5758 5756
5573 5581 5583 5588 5598 5602 5603 5610 5614 5620 5625 5629 5645 5651 5671 5673 5672 5680 5687 5692 5698 5702 5705 5709 5713 5718 5720 5724 5727 5730 5734 5736 5739 5740 5742 5743 5744 5745 5745 5746 5746 5745 5744 5743
5567 5573 5574 5580 5588 5585 5580 5600 5610 5615 5617 5627 5627 5652 5665 5657 5662 5667 5672 5676 5682 5687 5690 5693 5698 5703 5707 5709 5712 5717 5720 5723 5726 5727 5728 5730 5731 5732 5732 5732 5731 5731 5730 5730
5562 5565 5564 5574 5571 5562 5587 5594 5597 5600 5608 5612 5619 5638 5650 5648 5646 5648 5654 5660 5666 5672 5676 5678 5683 5688 5693 5695 5698 5700 5703 5707 5710 5713 5715 5716 5717 5718 5718 5718 5717 5717 5717 5715
5552 5555 5553 5556 5555 5557 5567 5591 5591 5586 5591 5604 5604 5616 5627 5636 5626 5629 5644 5650 5654 5657 5660 5664 5668 5669 5671 5676 5680 5686 5690 5693 5696 5699 5700 5701 5702 5703 5703 5703 5703 5703 5702 5701
5540 5541 5540 5545 5541 5542 5572 5580 5576 5568 5555 5590 5594 5604 5613 5620 5604 5619 5636 5636 5638 5641 5643 5646 5649 5651 5655 5662 5666 5670 5674 5677 5680 5682 5684 5686 5687 5687 5688 5688 5688 5688 5688 5688
5526 5527 5526 5535 5531 5534 5563 5562 5556 5546 5570 5590 5582 5588 5594 5590 5597 5610 5615 5612 5618 5621 5625 5627 5630 5636 5643 5645 5649 5655 5657 5661 5662 5665 5667 5669 5670 5671 5672 5672 5672 5673 5673 5674
5512 5515 5517 5521 5519 5529 5547 5543 5544 5553 5557 5559 5560 5574 5575 5579 5584 5588 5597 5599 5604 5609 5611 5614 5616 5622 5628 5629 5634 5639 5642 5643 5645 5647 5650 5651 5652 5654 5655 5656 5656 5657 5658 5658
5496 5503 5509 5507 5513 5527 5524 5529 5533 5538 5540 5543 5548 5555 5559 5562 5572 5578 5581 5585 5589 5592 5595 5598 5602 5606 5610 5615 5621 5625 5629 5628 5631 5634 5636 5637 5637 5639 5640 5640 5640 5641 5641 5642
5486 5489 5488 5495 5505 5507 5509 5515 5521 5523 5525 5528 5533 5541 5545 5552 5560 5564 5567 5571 5575 5578 5581 5582 5585 5590 5594 5598 5602 5607 5608 5612 5615 5617 5618 5620 5622 5623 5624 5625 5626 5627 5628 5629
5471 5474 5479 5482 5486 5493 5497 5503 5511 5512 5514 5517 5523 5527 5531 5539 5546 5549 5554 5558 5560 5564 5567 5569 5573 5575 5578 5580 5584 5589 5592 5595 5599 5601 5602 5603 5605 5607 5608 5610 5610 5612 5614 5615
5459 5461 5461 5465 5473 5482 5489 5491 5498 5501 5505 5507 5510 5515 5520 5526 5532 5537 5540 5543 5547 5549 5552 5554 5558 5561 5564 5566 5568 5573 5576 5579 5582 5584 5586 5588 5588 5591 5593 5594 5595 5598 5599 5599